Time,TemperatureF,DewpointF,PressureIn,WindDirection,WindDirectionDegrees,WindSpeedMPH,WindSpeedGustMPH,Humidity,HourlyPrecipIn,Conditions,Clouds,dailyrainin,SoftwareType,DateUTC
2013-04-08 00:00:00,63.5,30.7,29.87,SSW,199,0.0,0.0,29,0.00,CLR,,0.00,WeatherDisplay:10.37,2013-04-08 07:00:00,
2013-04-08 00:05:00,63.6,30.7,29.87,SW,230,0.0,0.0,29,0.00,CLR,,0.00,WeatherDisplay:10.37,2013-04-08 07:05:00,
2013-04-08 00:15:00,63.3,30.5,29.87,West,270,0.0,0.0,29,0.00,CLR,,0.00,WeatherDisplay:10.37,2013-04-08 07:15:00,
2013-04-08 00:20:00,63.1,31.1,29.87,West,270,0.0,0.0,30,0.00,CLR,,0.00,WeatherDisplay:10.37,2013-04-08 07:20:00,
2013-04-08 00:25:00,62.8,31.7,29.87,West,265,0.0,0.0,31,0.00,CLR,,0.00,WeatherDisplay:10.37,2013-04-08 07:25:00,
2013-04-08 00:35:00,62.4,32.1,29.86,SW,225,1.0,9.0,32,0.00,CLR,,0.00,WeatherDisplay:10.37,2013-04-08 07:35:00,
2013-04-08 00:40:00,62.4,32.1,29.87,SSW,211,0.0,9.0,32,0.00,CLR,,0.00,WeatherDisplay:10.37,2013-04-08 07:40:00,
2013-04-08 00:50:00,62.4,32.1,29.86,SW,224,0.0,8.0,32,0.00,CLR,,0.00,WeatherDisplay:10.37,2013-04-08 07:50:00,
2013-04-08 01:00:00,62.4,32.9,29.86,SW,229,0.0,0.0,33,0.00,CLR,,0.00,WeatherDisplay:10.37,2013-04-08 08:00:00,
2013-04-08 01:10:00,62.2,32.8,29.86,WSW,247,0.0,0.0,33,0.00,CLR,,0.00,WeatherDisplay:10.37,2013-04-08 08:10:00,
2013-04-08 01:20:00,61.9,33.2,29.85,SSW,208,9.0,11.0,34,0.00,CLR,,0.00,WeatherDisplay:10.37,2013-04-08 08:20:00,
2013-04-08 01:30:00,62.2,32.0,29.85,SSE,159,0.0,0.0,32,0.00,CLR,,0.00,WeatherDisplay:10.37,2013-04-08 08:30:00,
2013-04-08 01:35:00,62.2,32.8,29.86,South,186,0.0,4.0,33,0.00,CLR,,0.00,WeatherDisplay:10.37,2013-04-08 08:35:00,
2013-04-08 01:40:00,62.4,32.9,29.86,SSW,193,0.0,4.0,33,0.00,CLR,,0.00,WeatherDisplay:10.37,2013-04-08 08:40:00,
2013-04-08 01:50:00,62.2,32.0,29.85,SSE,153,0.0,0.0,32,0.00,CLR,,0.00,WeatherDisplay:10.37,2013-04-08 08:50:00,
2013-04-08 02:00:00,61.7,32.3,29.85,ENE,70,0.0,0.0,33,0.00,CLR,,0.00,WeatherDisplay:10.37,2013-04-08 09:00:00,
2013-04-08 02:05:00,61.5,32.1,29.85,ENE,68,0.0,0.0,33,0.00,CLR,,0.00,WeatherDisplay:10.37,2013-04-08 09:05:00,
2013-04-08 02:10:00,61.3,32.0,29.85,ENE,68,0.0,0.0,33,0.00,CLR,,0.00,WeatherDisplay:10.37,2013-04-08 09:10:00,
2013-04-08 02:15:00,61.0,31.6,29.85,NE,53,0.0,3.0,33,0.00,CLR,,0.00,WeatherDisplay:10.37,2013-04-08 09:15:00,
2013-04-08 02:20:00,60.8,31.5,29.85,NE,45,0.0,0.0,33,0.00,CLR,,0.00,WeatherDisplay:10.37,2013-04-08 09:20:00,
2013-04-08 02:30:00,60.6,32.8,29.84,East,97,0.0,0.0,35,0.00,CLR,,0.00,WeatherDisplay:10.37,2013-04-08 09:30:00,
2013-04-08 02:40:00,60.1,33.7,29.84,SSE,165,0.0,0.0,37,0.00,CLR,,0.00,WeatherDisplay:10.37,2013-04-08 09:40:00,
2013-04-08 02:50:00,59.9,34.9,29.84,SW,219,1.0,6.0,39,0.00,CLR,,0.00,WeatherDisplay:10.37,2013-04-08 09:50:00,
2013-04-08 03:00:00,59.7,35.3,29.83,SW,217,2.0,4.0,40,0.00,CLR,,0.00,WeatherDisplay:10.37,2013-04-08 10:00:00,
2013-04-08 03:05:00,59.7,35.3,29.83,South,189,0.0,6.0,40,0.00,CLR,,0.00,WeatherDisplay:10.37,2013-04-08 10:05:00,
2013-04-08 03:10:00,59.5,35.2,29.83,SSE,164,0.0,0.0,40,0.00,CLR,,0.00,WeatherDisplay:10.37,2013-04-08 10:10:00,
2013-04-08 03:20:00,59.2,34.9,29.83,South,175,0.0,0.0,40,0.00,CLR,,0.00,WeatherDisplay:10.37,2013-04-08 10:20:00,
2013-04-08 03:25:00,58.8,33.9,29.83,South,180,0.0,0.0,39,0.00,CLR,,0.00,WeatherDisplay:10.37,2013-04-08 10:25:00,
2013-04-08 03:35:00,58.6,32.4,29.82,ESE,112,0.0,0.0,37,0.00,CLR,,0.00,WeatherDisplay:10.37,2013-04-08 10:35:00,
2013-04-08 03:40:00,58.5,32.3,29.82,SE,136,0.0,0.0,37,0.00,CLR,,0.00,WeatherDisplay:10.37,2013-04-08 10:40:00,
2013-04-08 03:50:00,57.7,31.6,29.82,SE,140,0.0,0.0,37,0.00,CLR,,0.00,WeatherDisplay:10.37,2013-04-08 10:50:00,
2013-04-08 04:00:00,57.4,32.0,29.82,SSW,202,0.0,0.0,38,0.00,CLR,,0.00,WeatherDisplay:10.37,2013-04-08 11:00:00,
2013-04-08 04:05:00,57.1,31.7,29.81,SW,216,1.0,3.0,38,0.00,CLR,,0.00,WeatherDisplay:10.37,2013-04-08 11:05:00,
2013-04-08 04:10:00,57.0,31.6,29.82,SW,233,0.0,3.0,38,0.00,CLR,,0.00,WeatherDisplay:10.37,2013-04-08 11:10:00,
2013-04-08 04:20:00,57.6,32.1,29.81,SW,221,0.0,8.0,38,0.00,CLR,,0.00,WeatherDisplay:10.37,2013-04-08 11:20:00,
2013-04-08 04:30:00,57.9,32.4,29.82,SW,230,0.0,1.0,38,0.00,CLR,,0.00,WeatherDisplay:10.37,2013-04-08 11:30:00,
2013-04-08 04:40:00,58.3,32.8,29.82,South,180,0.0,0.0,38,0.00,CLR,,0.00,WeatherDisplay:10.37,2013-04-08 11:40:00,
2013-04-08 04:50:00,58.5,33.0,29.81,South,173,0.0,0.0,38,0.00,CLR,,0.00,WeatherDisplay:10.37,2013-04-08 11:50:00,
2013-04-08 04:55:00,58.5,32.9,29.81,ESE,120,0.0,0.0,38,0.00,CLR,,0.00,WeatherDisplay:10.37,2013-04-08 11:55:00,
2013-04-08 05:05:00,58.1,32.6,29.81,ESE,115,0.0,0.0,38,0.00,CLR,,0.00,WeatherDisplay:10.37,2013-04-08 12:05:00,
2013-04-08 05:10:00,57.9,33.7,29.80,SSE,164,0.0,0.0,40,0.00,CLR,,0.00,WeatherDisplay:10.37,2013-04-08 12:10:00,
2013-04-08 05:20:00,58.3,34.0,29.80,SE,136,0.0,0.0,40,0.00,CLR,,0.00,WeatherDisplay:10.37,2013-04-08 12:20:00,
2013-04-08 05:30:00,58.3,33.4,29.81,ENE,68,0.0,0.0,39,0.00,CLR,,0.00,WeatherDisplay:10.37,2013-04-08 12:30:00,
2013-04-08 05:35:00,58.1,33.2,29.81,ENE,75,0.0,0.0,39,0.00,CLR,,0.00,WeatherDisplay:10.37,2013-04-08 12:35:00,
2013-04-08 05:45:00,58.1,33.8,29.81,ESE,112,0.0,0.0,40,0.00,CLR,,0.00,WeatherDisplay:10.37,2013-04-08 12:45:00,
2013-04-08 05:55:00,57.7,33.6,29.81,SE,129,0.0,0.0,40,0.00,CLR,,0.00,WeatherDisplay:10.37,2013-04-08 12:55:00,
2013-04-08 06:00:00,57.7,33.6,29.80,SSE,152,0.0,0.0,40,0.00,CLR,,0.00,WeatherDisplay:10.37,2013-04-08 13:00:00,
2013-04-08 06:05:00,57.6,33.4,29.81,SSE,158,0.0,0.0,40,0.00,CLR,,0.00,WeatherDisplay:10.37,2013-04-08 13:05:00,
2013-04-08 06:10:00,57.4,33.2,29.81,South,175,0.0,0.0,40,0.00,CLR,,0.00,WeatherDisplay:10.37,2013-04-08 13:10:00,
2013-04-08 06:20:00,57.4,33.2,29.81,SSW,198,0.0,0.0,40,0.00,CLR,,0.00,WeatherDisplay:10.37,2013-04-08 13:20:00,
2013-04-08 06:30:00,57.2,33.7,29.81,SSW,206,5.0,5.0,41,0.00,CLR,,0.00,WeatherDisplay:10.37,2013-04-08 13:30:00,
2013-04-08 06:40:00,57.0,33.5,29.81,South,178,0.0,0.0,41,0.00,CLR,,0.00,WeatherDisplay:10.37,2013-04-08 13:40:00,
2013-04-08 06:50:00,57.2,33.7,29.81,South,190,0.0,0.0,41,0.00,CLR,,0.00,WeatherDisplay:10.37,2013-04-08 13:50:00,
2013-04-08 07:05:00,57.7,33.6,29.79,SE,137,0.0,0.0,40,0.00,CLR,,0.00,WeatherDisplay:10.37,2013-04-08 14:05:00,
2013-04-08 07:10:00,57.9,33.7,29.80,ENE,77,0.0,0.0,40,0.00,CLR,,0.00,WeatherDisplay:10.37,2013-04-08 14:10:00,
2013-04-08 07:15:00,58.3,34.0,29.79,NW,316,0.0,0.0,40,0.00,CLR,,0.00,WeatherDisplay:10.37,2013-04-08 14:15:00,
2013-04-08 07:20:00,58.8,33.9,29.80,NE,41,0.0,0.0,39,0.00,CLR,,0.00,WeatherDisplay:10.37,2013-04-08 14:20:00,
2013-04-08 07:35:00,59.4,34.4,29.79,NNE,16,3.0,5.0,39,0.00,CLR,,0.00,WeatherDisplay:10.37,2013-04-08 14:35:00,
2013-04-08 07:40:00,59.5,34.5,29.79,SSE,161,0.0,0.0,39,0.00,CLR,,0.00,WeatherDisplay:10.37,2013-04-08 14:40:00,
2013-04-08 07:50:00,60.1,35.0,29.79,ENE,72,0.0,7.0,39,0.00,CLR,,0.00,WeatherDisplay:10.37,2013-04-08 14:50:00,
2013-04-08 08:00:00,60.6,35.5,29.79,East,97,10.0,10.0,39,0.00,CLR,,0.00,WeatherDisplay:10.37,2013-04-08 15:00:00,
2013-04-08 08:10:00,61.3,36.2,29.80,ENE,69,0.0,0.0,39,0.00,CLR,,0.00,WeatherDisplay:10.37,2013-04-08 15:10:00,
2013-04-08 08:20:00,61.3,35.5,29.79,NNW,331,0.0,0.0,38,0.00,CLR,,0.00,WeatherDisplay:10.37,2013-04-08 15:20:00,
2013-04-08 08:30:00,61.9,36.0,29.79,East,86,9.0,9.0,38,0.00,CLR,,0.00,WeatherDisplay:10.37,2013-04-08 15:30:00,
2013-04-08 08:40:00,62.4,35.8,29.78,ESE,111,0.0,0.0,37,0.00,CLR,,0.00,WeatherDisplay:10.37,2013-04-08 15:40:00,
2013-04-08 08:50:00,62.8,36.1,29.79,ENE,65,3.0,4.0,37,0.00,CLR,,0.00,WeatherDisplay:10.37,2013-04-08 15:50:00,
2013-04-08 09:00:00,63.1,35.7,29.79,East,92,8.0,9.0,36,0.00,CLR,,0.00,WeatherDisplay:10.37,2013-04-08 16:00:00,
2013-04-08 09:10:00,63.7,36.2,29.79,East,89,3.0,5.0,36,0.00,CLR,,0.00,WeatherDisplay:10.37,2013-04-08 16:10:00,
2013-04-08 09:20:00,64.6,36.3,29.79,ESE,111,0.0,0.0,35,0.00,CLR,,0.00,WeatherDisplay:10.37,2013-04-08 16:20:00,
2013-04-08 09:30:00,65.3,37.0,29.78,East,83,9.0,11.0,35,0.00,CLR,,0.00,WeatherDisplay:10.37,2013-04-08 16:30:00,
2013-04-08 09:40:00,66.3,37.1,29.78,East,92,0.0,0.0,34,0.00,CLR,,0.00,WeatherDisplay:10.37,2013-04-08 16:40:00,
2013-04-08 09:50:00,67.1,37.0,29.78,WSW,245,0.0,8.0,33,0.00,CLR,,0.00,WeatherDisplay:10.37,2013-04-08 16:50:00,
2013-04-08 10:00:00,67.6,36.7,29.78,East,98,0.0,2.0,32,0.00,CLR,,0.00,WeatherDisplay:10.37,2013-04-08 17:00:00,
2013-04-08 10:05:00,68.2,37.2,29.78,ENE,63,1.0,3.0,32,0.00,CLR,,0.00,WeatherDisplay:10.37,2013-04-08 17:05:00,
2013-04-08 10:15:00,68.4,36.5,29.78,SSE,168,0.0,7.0,31,0.00,CLR,,0.00,WeatherDisplay:10.37,2013-04-08 17:15:00,
2013-04-08 10:20:00,68.4,37.3,29.77,SSE,150,2.0,2.0,32,0.00,CLR,,0.00,WeatherDisplay:10.37,2013-04-08 17:20:00,
2013-04-08 10:25:00,68.5,37.5,29.77,South,186,0.0,7.0,32,0.00,CLR,,0.00,WeatherDisplay:10.37,2013-04-08 17:25:00,
2013-04-08 10:35:00,69.0,37.1,29.75,SSW,203,0.0,0.0,31,0.00,CLR,,0.00,WeatherDisplay:10.37,2013-04-08 17:35:00,
2013-04-08 10:40:00,69.3,36.5,29.75,South,188,9.0,9.0,30,0.00,CLR,,0.00,WeatherDisplay:10.37,2013-04-08 17:40:00,
2013-04-08 10:50:00,70.0,36.2,29.75,South,183,12.0,14.0,29,0.00,CLR,,0.00,WeatherDisplay:10.37,2013-04-08 17:50:00,
2013-04-08 11:00:00,70.2,36.4,29.73,SSE,147,0.0,7.0,29,0.00,CLR,,0.00,WeatherDisplay:10.37,2013-04-08 18:00:00,
2013-04-08 11:05:00,70.5,34.0,29.73,SSW,207,7.0,8.0,26,0.00,CLR,,0.00,WeatherDisplay:10.37,2013-04-08 18:05:00,
2013-04-08 11:10:00,70.9,34.3,29.73,SW,221,12.0,20.0,26,0.00,CLR,,0.00,WeatherDisplay:10.37,2013-04-08 18:10:00,
2013-04-08 11:20:00,71.2,34.6,29.71,SSW,193,8.0,14.0,26,0.00,CLR,,0.00,WeatherDisplay:10.37,2013-04-08 18:20:00,
2013-04-08 11:30:00,71.4,34.7,29.71,SSW,204,2.0,15.0,26,0.00,CLR,,0.00,WeatherDisplay:10.37,2013-04-08 18:30:00,
2013-04-08 11:40:00,71.8,35.0,29.71,WSW,243,9.0,20.0,26,0.00,CLR,,0.00,WeatherDisplay:10.37,2013-04-08 18:40:00,
2013-04-08 11:50:00,72.1,35.3,29.70,SSW,202,6.0,17.0,26,0.00,CLR,,0.00,WeatherDisplay:10.37,2013-04-08 18:50:00,
2013-04-08 12:00:00,72.3,35.5,29.68,SSW,205,13.0,13.0,26,0.00,CLR,,0.00,WeatherDisplay:10.37,2013-04-08 19:00:00,
2013-04-08 12:05:00,72.6,34.7,29.67,South,175,17.0,17.0,25,0.00,CLR,,0.00,WeatherDisplay:10.37,2013-04-08 19:05:00,
2013-04-08 12:15:00,72.9,35.0,29.66,SW,219,20.0,25.0,25,0.00,CLR,,0.00,WeatherDisplay:10.37,2013-04-08 19:15:00,
2013-04-08 12:25:00,72.7,35.8,29.65,SW,224,22.0,23.0,26,0.00,CLR,,0.00,WeatherDisplay:10.37,2013-04-08 19:25:00,
2013-04-08 12:30:00,72.5,35.7,29.65,SSW,213,16.0,34.0,26,0.00,CLR,,0.00,WeatherDisplay:10.37,2013-04-08 19:30:00,
2013-04-08 12:40:00,72.5,37.5,29.65,SSW,210,17.0,30.0,28,0.14,RA,,0.14,WeatherDisplay:10.37,2013-04-08 19:40:00,
2013-04-08 12:50:00,72.7,37.7,29.65,SW,216,22.0,30.0,28,0.00,CLR,,0.14,WeatherDisplay:10.37,2013-04-08 19:50:00,
2013-04-08 13:00:00,72.5,38.4,29.65,SW,229,22.0,43.0,29,0.10,RA,,0.26,WeatherDisplay:10.37,2013-04-08 20:00:00,
2013-04-08 13:10:00,72.3,38.3,29.66,SW,216,18.0,24.0,29,0.00,,,0.26,WeatherDisplay:10.37,2013-04-08 20:10:00,
2013-04-08 13:20:00,72.7,38.6,29.66,SW,227,18.0,32.0,29,0.02,RA,,0.30,WeatherDisplay:10.37,2013-04-08 20:20:00,
2013-04-08 13:30:00,73.0,38.9,29.66,SW,221,9.0,18.0,29,0.00,,,0.30,WeatherDisplay:10.37,2013-04-08 20:30:00,
2013-04-08 13:40:00,73.0,36.1,29.65,WSW,239,12.0,16.0,26,0.00,RA,,0.33,WeatherDisplay:10.37,2013-04-08 20:40:00,
2013-04-08 13:45:00,73.2,35.3,29.65,WSW,248,8.0,25.0,25,0.00,,,0.33,WeatherDisplay:10.37,2013-04-08 20:45:00,
2013-04-08 13:50:00,73.4,34.4,29.64,WSW,248,12.0,24.0,24,0.00,CLR,,0.33,WeatherDisplay:10.37,2013-04-08 20:50:00,
2013-04-08 14:00:00,73.4,33.3,29.64,WSW,248,7.0,14.0,23,0.00,CLR,,0.33,WeatherDisplay:10.37,2013-04-08 21:00:00,
2013-04-08 14:10:00,74.1,33.9,29.64,WSW,248,17.0,21.0,23,0.00,CLR,,0.33,WeatherDisplay:10.37,2013-04-08 21:10:00,
2013-04-08 14:20:00,74.0,32.7,29.65,WSW,248,9.0,22.0,22,0.00,CLR,,0.33,WeatherDisplay:10.37,2013-04-08 21:20:00,
2013-04-08 14:30:00,74.1,33.9,29.64,WSW,248,17.0,22.0,23,0.00,CLR,,0.33,WeatherDisplay:10.37,2013-04-08 21:30:00,
2013-04-08 14:40:00,74.3,34.1,29.64,WSW,248,14.0,15.0,23,0.00,CLR,,0.33,WeatherDisplay:10.37,2013-04-08 21:40:00,
2013-04-08 14:45:00,74.3,34.1,29.64,WSW,248,16.0,28.0,23,0.00,CLR,,0.33,WeatherDisplay:10.37,2013-04-08 21:45:00,
2013-04-08 14:50:00,74.5,34.2,29.64,WSW,248,7.0,14.0,23,0.00,CLR,,0.33,WeatherDisplay:10.37,2013-04-08 21:50:00,
2013-04-08 15:00:00,74.1,33.9,29.64,WSW,248,15.0,21.0,23,0.00,CLR,,0.33,WeatherDisplay:10.37,2013-04-08 22:00:00,
2013-04-08 15:05:00,73.9,34.8,29.64,WSW,248,22.0,22.0,24,0.00,CLR,,0.33,WeatherDisplay:10.37,2013-04-08 22:05:00,
2013-04-08 15:10:00,73.9,33.8,29.63,WSW,248,15.0,31.0,23,0.00,CLR,,0.33,WeatherDisplay:10.37,2013-04-08 22:10:00,
2013-04-08 15:25:00,74.3,34.1,29.63,WSW,248,13.0,21.0,23,0.00,CLR,,0.33,WeatherDisplay:10.37,2013-04-08 22:25:00,
2013-04-08 15:30:00,74.1,33.9,29.63,WSW,248,24.0,27.0,23,0.00,CLR,,0.33,WeatherDisplay:10.37,2013-04-08 22:30:00,
2013-04-08 15:40:00,73.4,33.3,29.62,WSW,248,15.0,26.0,23,0.00,CLR,,0.33,WeatherDisplay:10.37,2013-04-08 22:40:00,
2013-04-08 15:50:00,72.9,31.8,29.62,WSW,248,5.0,16.0,22,0.00,CLR,,0.33,WeatherDisplay:10.37,2013-04-08 22:50:00,
2013-04-08 16:00:00,72.7,31.6,29.62,WSW,248,15.0,17.0,22,0.00,CLR,,0.33,WeatherDisplay:10.37,2013-04-08 23:00:00,
2013-04-08 16:05:00,72.3,31.3,29.61,WSW,248,9.0,17.0,22,0.00,CLR,,0.33,WeatherDisplay:10.37,2013-04-08 23:05:00,
2013-04-08 16:10:00,72.0,31.0,29.61,WSW,248,14.0,19.0,22,0.00,CLR,,0.33,WeatherDisplay:10.37,2013-04-08 23:10:00,
2013-04-08 16:15:00,71.4,31.7,29.60,WSW,248,14.0,19.0,23,0.00,CLR,,0.33,WeatherDisplay:10.37,2013-04-08 23:15:00,
2013-04-08 16:20:00,71.2,32.6,29.60,WSW,248,13.0,17.0,24,0.00,CLR,,0.33,WeatherDisplay:10.37,2013-04-08 23:20:00,
2013-04-08 16:30:00,71.2,33.6,29.60,WSW,248,18.0,27.0,25,0.00,CLR,,0.33,WeatherDisplay:10.37,2013-04-08 23:30:00,
2013-04-08 16:40:00,70.9,33.3,29.60,WSW,248,10.0,16.0,25,0.00,CLR,,0.33,WeatherDisplay:10.37,2013-04-08 23:40:00,
2013-04-08 16:45:00,70.5,32.9,29.60,WSW,248,5.0,10.0,25,0.00,CLR,,0.33,WeatherDisplay:10.37,2013-04-08 23:45:00,
2013-04-08 16:55:00,70.0,34.4,29.60,WSW,248,17.0,20.0,27,0.00,CLR,,0.33,WeatherDisplay:10.37,2013-04-08 23:55:00,
2013-04-08 17:00:00,69.1,33.7,29.60,WSW,248,12.0,20.0,27,0.00,CLR,,0.33,WeatherDisplay:10.37,2013-04-09 00:00:00,
2013-04-08 17:05:00,68.9,33.5,29.60,WSW,248,20.0,20.0,27,0.00,CLR,,0.33,WeatherDisplay:10.37,2013-04-09 00:05:00,
2013-04-08 17:10:00,68.7,33.3,29.59,WSW,248,13.0,13.0,27,0.00,CLR,,0.33,WeatherDisplay:10.37,2013-04-09 00:10:00,
2013-04-08 17:15:00,68.2,32.9,29.58,WSW,248,15.0,15.0,27,0.00,CLR,,0.33,WeatherDisplay:10.37,2013-04-09 00:15:00,
2013-04-08 17:25:00,67.8,33.5,29.59,WSW,248,17.0,21.0,28,0.00,CLR,,0.33,WeatherDisplay:10.37,2013-04-09 00:25:00,
2013-04-08 17:30:00,67.6,35.1,29.58,WSW,248,10.0,11.0,30,0.00,CLR,,0.33,WeatherDisplay:10.37,2013-04-09 00:30:00,
2013-04-08 17:40:00,66.8,34.4,29.58,WSW,248,22.0,28.0,30,0.00,CLR,,0.33,WeatherDisplay:10.37,2013-04-09 00:40:00,
2013-04-08 17:50:00,66.4,34.0,29.59,WSW,248,14.0,17.0,30,0.00,CLR,,0.33,WeatherDisplay:10.37,2013-04-09 00:50:00,
2013-04-08 18:00:00,65.7,34.2,29.59,WSW,248,10.0,17.0,31,0.00,CLR,,0.33,WeatherDisplay:10.37,2013-04-09 01:00:00,
2013-04-08 18:05:00,65.3,34.7,29.58,WSW,248,7.0,16.0,32,0.00,CLR,,0.33,WeatherDisplay:10.37,2013-04-09 01:05:00,
2013-04-08 18:10:00,64.8,34.2,29.58,WSW,248,20.0,22.0,32,0.00,CLR,,0.33,WeatherDisplay:10.37,2013-04-09 01:10:00,
2013-04-08 18:20:00,64.2,35.2,29.58,South,175,14.0,17.0,34,0.00,CLR,,0.33,WeatherDisplay:10.37,2013-04-09 01:20:00,
2013-04-08 18:30:00,63.3,34.4,29.57,South,175,13.0,19.0,34,0.00,CLR,,0.33,WeatherDisplay:10.37,2013-04-09 01:30:00,
2013-04-08 18:35:00,63.0,34.2,29.57,SSE,161,12.0,13.0,34,0.00,CLR,,0.33,WeatherDisplay:10.37,2013-04-09 01:35:00,
2013-04-08 18:45:00,62.4,33.7,29.58,South,188,8.0,22.0,34,0.00,CLR,,0.33,WeatherDisplay:10.37,2013-04-09 01:45:00,
2013-04-08 18:50:00,62.2,34.2,29.58,SSW,204,15.0,15.0,35,0.00,CLR,,0.33,WeatherDisplay:10.37,2013-04-09 01:50:00,
2013-04-08 19:00:00,61.7,34.5,29.57,South,178,10.0,12.0,36,0.00,CLR,,0.33,WeatherDisplay:10.37,2013-04-09 02:00:00,
2013-04-08 19:05:00,61.5,34.3,29.57,SW,232,8.0,16.0,36,0.00,CLR,,0.33,WeatherDisplay:10.37,2013-04-09 02:05:00,
2013-04-08 19:10:00,61.2,34.0,29.56,WSW,243,10.0,23.0,36,0.00,CLR,,0.33,WeatherDisplay:10.37,2013-04-09 02:10:00,
2013-04-08 19:15:00,61.0,33.8,29.56,SW,224,21.0,23.0,36,0.00,CLR,,0.33,WeatherDisplay:10.37,2013-04-09 02:15:00,
2013-04-08 19:25:00,60.6,33.5,29.57,SW,219,16.0,17.0,36,0.00,CLR,,0.33,WeatherDisplay:10.37,2013-04-09 02:25:00,
2013-04-08 19:35:00,60.5,34.0,29.58,SSW,213,21.0,23.0,37,0.00,CLR,,0.33,WeatherDisplay:10.37,2013-04-09 02:35:00,
2013-04-08 19:40:00,60.4,33.3,29.58,SW,218,13.0,21.0,36,0.00,CLR,,0.33,WeatherDisplay:10.37,2013-04-09 02:40:00,
2013-04-08 19:50:00,60.1,32.3,29.58,SSW,197,9.0,15.0,35,0.00,CLR,,0.33,WeatherDisplay:10.37,2013-04-09 02:50:00,
2013-04-08 19:55:00,59.9,32.2,29.58,SW,227,20.0,30.0,35,0.00,CLR,,0.33,WeatherDisplay:10.37,2013-04-09 02:55:00,
2013-04-08 20:05:00,59.4,31.7,29.57,South,184,15.0,29.0,35,0.00,CLR,,0.33,WeatherDisplay:10.37,2013-04-09 03:05:00,
2013-04-08 20:10:00,59.2,31.5,29.58,SSW,213,16.0,29.0,35,0.04,RA,,0.37,WeatherDisplay:10.37,2013-04-09 03:10:00,
2013-04-08 20:20:00,58.8,31.2,29.57,South,184,20.0,39.0,35,0.00,CLR,,0.37,WeatherDisplay:10.37,2013-04-09 03:20:00,
2013-04-08 20:30:00,58.6,31.0,29.57,SW,230,15.0,25.0,35,0.00,RA,,0.39,WeatherDisplay:10.37,2013-04-09 03:30:00,
2013-04-08 20:40:00,58.1,30.6,29.57,SSW,213,21.0,22.0,35,0.02,RA,,0.41,WeatherDisplay:10.37,2013-04-09 03:40:00,
2013-04-08 20:50:00,57.7,30.9,29.57,SW,219,9.0,21.0,36,0.00,CLR,,0.41,WeatherDisplay:10.37,2013-04-09 03:50:00,
2013-04-08 21:00:00,57.4,30.6,29.58,SSW,197,9.0,24.0,36,0.00,CLR,,0.41,WeatherDisplay:10.37,2013-04-09 04:00:00,
2013-04-08 21:05:00,57.3,30.5,29.58,SSW,211,14.0,15.0,36,0.00,CLR,,0.41,WeatherDisplay:10.37,2013-04-09 04:05:00,
2013-04-08 21:10:00,57.0,29.6,29.57,SW,233,20.0,21.0,35,0.00,CLR,,0.41,WeatherDisplay:10.37,2013-04-09 04:10:00,
2013-04-08 21:20:00,56.8,29.4,29.58,SW,215,22.0,24.0,35,0.00,CLR,,0.41,WeatherDisplay:10.37,2013-04-09 04:20:00,
2013-04-08 21:30:00,56.5,28.4,29.58,SSW,200,15.0,15.0,34,0.00,CLR,,0.41,WeatherDisplay:10.37,2013-04-09 04:30:00,
2013-04-08 21:40:00,56.3,29.0,29.58,SSW,208,9.0,18.0,35,0.00,CLR,,0.41,WeatherDisplay:10.37,2013-04-09 04:40:00,
2013-04-08 21:50:00,55.8,29.2,29.57,SSW,202,18.0,19.0,36,0.00,CLR,,0.41,WeatherDisplay:10.37,2013-04-09 04:50:00,
2013-04-08 22:00:00,55.4,28.9,29.58,SSW,202,20.0,25.0,36,0.00,CLR,,0.41,WeatherDisplay:10.37,2013-04-09 05:00:00,
2013-04-08 22:05:00,55.2,28.7,29.57,SW,217,15.0,20.0,36,0.00,CLR,,0.41,WeatherDisplay:10.37,2013-04-09 05:05:00,
2013-04-08 22:10:00,55.1,29.3,29.58,SW,219,17.0,22.0,37,0.00,CLR,,0.41,WeatherDisplay:10.37,2013-04-09 05:10:00,
2013-04-08 22:20:00,54.7,28.9,29.58,SSW,212,14.0,26.0,37,0.00,RA,,0.45,WeatherDisplay:10.37,2013-04-09 05:20:00,
2013-04-08 22:30:00,54.3,28.6,29.60,SSW,198,21.0,21.0,37,0.00,CLR,,0.45,WeatherDisplay:10.37,2013-04-09 05:30:00,
2013-04-08 22:40:00,54.1,29.1,29.60,SW,218,14.0,14.0,38,0.00,CLR,,0.45,WeatherDisplay:10.37,2013-04-09 05:40:00,
2013-04-08 22:50:00,54.0,28.3,29.59,SW,216,8.0,10.0,37,0.00,CLR,,0.45,WeatherDisplay:10.37,2013-04-09 05:50:00,
2013-04-08 23:00:00,53.8,27.4,29.59,SW,215,17.0,23.0,36,0.00,CLR,,0.45,WeatherDisplay:10.37,2013-04-09 06:00:00,
2013-04-08 23:10:00,53.4,27.8,29.60,SW,220,17.0,18.0,37,0.00,CLR,,0.45,WeatherDisplay:10.37,2013-04-09 06:10:00,
2013-04-08 23:20:00,53.4,27.7,29.61,SW,228,16.0,30.0,37,0.00,RA,,0.49,WeatherDisplay:10.37,2013-04-09 06:20:00,
2013-04-08 23:30:00,52.9,27.9,29.62,SW,217,20.0,21.0,38,0.00,CLR,,0.49,WeatherDisplay:10.37,2013-04-09 06:30:00,
2013-04-08 23:40:00,52.6,28.9,29.63,SSW,213,12.0,20.0,40,0.00,CLR,,0.49,WeatherDisplay:10.37,2013-04-09 06:40:00,
2013-04-08 23:50:00,52.3,30.5,29.65,SW,220,7.0,17.0,43,0.00,CLR,,0.49,WeatherDisplay:10.37,2013-04-09 06:50:00,